timestamp,wind_dir_avg,wind_spd_avg,wind_spd_max_dir,wind_spd_gust,battery_voltage,lat,long
2022-04-29 00:04:01+00:00,84.0,5.49,91.0,6.64,12.65,47.59359,-54.27349
2022-04-29 00:14:01+00:00,68.0,4.18,71.0,5.0,12.41,47.59359,-54.27349
2022-04-29 00:24:01+00:00,80.0,4.99,88.0,6.79,12.41,47.59359,-54.27349
2022-04-29 00:34:01+00:00,69.0,4.55,79.0,6.86,12.41,47.59359,-54.27349
2022-04-29 00:44:01+00:00,74.0,4.28,82.0,6.55,12.41,47.59359,-54.27349
2022-04-29 00:54:01+00:00,70.0,4.52,79.0,6.45,12.41,47.59359,-54.27349
2022-04-29 01:04:01+00:00,65.0,4.61,73.0,6.1,12.41,47.59359,-54.27349
2022-04-29 01:14:01+00:00,58.0,4.51,63.0,5.26,12.33,47.59359,-54.27349
2022-04-29 01:24:01+00:00,63.0,4.14,74.0,5.29,12.33,47.59359,-54.27349
2022-04-29 01:34:01+00:00,70.0,4.62,69.0,5.83,12.33,47.59359,-54.27349
2022-04-29 01:44:01+00:00,69.0,5.8,70.0,6.16,12.33,47.59359,-54.27349
2022-04-29 01:54:01+00:00,71.0,5.5,68.0,6.0,12.33,47.59359,-54.27349
2022-04-29 02:04:01+00:00,71.0,5.48,74.0,6.14,12.33,47.59359,-54.27349
2022-04-29 02:14:01+00:00,70.0,5.56,75.0,6.22,12.33,47.59359,-54.27349
2022-04-29 02:24:01+00:00,71.0,5.57,71.0,6.32,12.33,47.59359,-54.27349
2022-04-29 02:34:01+00:00,72.0,4.73,69.0,5.58,12.33,47.59359,-54.27349
2022-04-29 02:44:01+00:00,68.0,5.25,69.0,5.69,12.33,47.59359,-54.27349
2022-04-29 02:54:01+00:00,69.0,4.57,68.0,5.2,12.33,47.59359,-54.27349
2022-04-29 03:04:01+00:00,68.0,2.64,54.0,4.31,12.33,47.59359,-54.27349
2022-04-29 03:14:00+00:00,73.0,2.71,79.0,3.85,12.33,47.59359,-54.27349
2022-04-29 03:24:00+00:00,67.0,4.19,70.0,4.64,12.33,47.59359,-54.27349
2022-04-29 03:34:00+00:00,65.0,4.4,62.0,5.01,12.33,47.59359,-54.27349
2022-04-29 03:44:00+00:00,62.0,4.79,60.0,5.61,12.33,47.59359,-54.27349
2022-04-29 03:54:00+00:00,65.0,4.99,65.0,5.5,12.33,47.59359,-54.27349
2022-04-29 04:04:00+00:00,60.0,5.24,58.0,5.62,12.33,47.59359,-54.27349
2022-04-29 04:14:00+00:00,52.0,4.54,47.0,5.4,12.25,47.59359,-54.27349
2022-04-29 04:24:00+00:00,49.0,5.31,48.0,5.84,12.25,47.59359,-54.27349
2022-04-29 04:34:00+00:00,52.0,5.22,50.0,6.01,12.25,47.59359,-54.27349
2022-04-29 04:44:00+00:00,49.0,5.75,51.0,6.47,12.25,47.59359,-54.27349
2022-04-29 04:54:00+00:00,51.0,6.0,54.0,6.85,12.25,47.59359,-54.27349
2022-04-29 05:04:00+00:00,60.0,5.69,57.0,6.9,12.25,47.59359,-54.27349
2022-04-29 05:14:00+00:00,63.0,5.67,58.0,6.37,12.25,47.59359,-54.27349
2022-04-29 05:24:00+00:00,61.0,6.23,60.0,6.85,12.25,47.59359,-54.27349
2022-04-29 05:34:00+00:00,55.0,6.62,57.0,7.53,12.25,47.59359,-54.27349
2022-04-29 05:44:00+00:00,56.0,6.31,54.0,7.02,12.25,47.59359,-54.27349
2022-04-29 05:54:00+00:00,55.0,6.91,54.0,7.51,12.25,47.59359,-54.27349
2022-04-29 06:04:00+00:00,59.0,6.14,60.0,6.64,12.25,47.59359,-54.27349
2022-04-29 06:14:01+00:00,55.0,5.76,52.0,6.36,12.25,47.59359,-54.27349
2022-04-29 06:24:01+00:00,55.0,5.62,56.0,6.6,12.25,47.59359,-54.27349
2022-04-29 06:34:01+00:00,53.0,5.28,54.0,5.79,12.25,47.59359,-54.27349
2022-04-29 06:44:01+00:00,49.0,5.74,53.0,6.24,12.25,47.59359,-54.27349
2022-04-29 06:54:01+00:00,51.0,5.75,52.0,6.43,12.25,47.59359,-54.27349
2022-04-29 07:04:01+00:00,55.0,4.52,51.0,5.18,12.25,47.59359,-54.27349
2022-04-29 07:14:01+00:00,55.0,5.27,56.0,5.9,12.17,47.59359,-54.27349
2022-04-29 07:24:01+00:00,58.0,5.77,58.0,6.44,12.17,47.59359,-54.27349
2022-04-29 07:34:01+00:00,55.0,6.92,58.0,8.09,12.17,47.59359,-54.27349
2022-04-29 07:44:01+00:00,59.0,6.34,54.0,7.35,12.17,47.59359,-54.27349
2022-04-29 07:54:01+00:00,60.0,6.39,57.0,6.94,12.17,47.59359,-54.27349
2022-04-29 08:04:01+00:00,60.0,6.27,57.0,7.16,12.17,47.59359,-54.27349
2022-04-29 08:14:00+00:00,57.0,5.9,54.0,6.52,12.17,47.59359,-54.27349
2022-04-29 08:24:00+00:00,51.0,6.29,51.0,7.05,12.17,47.59359,-54.27349
2022-04-29 08:34:00+00:00,44.0,6.76,38.0,7.63,12.17,47.59359,-54.27349
2022-04-29 08:44:00+00:00,40.0,6.57,39.0,7.34,12.17,47.59359,-54.27349
2022-04-29 08:54:00+00:00,38.0,8.31,38.0,9.01,12.17,47.59359,-54.27349
2022-04-29 09:04:00+00:00,36.0,6.93,38.0,7.77,12.17,47.59359,-54.27349
2022-04-29 09:14:00+00:00,35.0,7.62,36.0,8.28,12.17,47.59359,-54.27349
2022-04-29 09:24:00+00:00,36.0,6.7,34.0,7.57,12.17,47.59359,-54.27349
2022-04-29 09:34:00+00:00,38.0,6.81,32.0,7.76,12.17,47.59359,-54.27349
2022-04-29 09:44:00+00:00,39.0,7.6,38.0,8.54,12.17,47.59359,-54.27349
2022-04-29 09:54:00+00:00,41.0,7.41,43.0,8.4,12.17,47.59359,-54.27349
2022-04-29 10:04:00+00:00,41.0,7.4,40.0,8.3,12.17,47.59359,-54.27349
2022-04-29 10:14:01+00:00,37.0,7.52,37.0,8.7,12.25,47.59359,-54.27349
2022-04-29 10:24:01+00:00,36.0,6.15,37.0,6.96,12.25,47.59359,-54.27349
2022-04-29 10:34:01+00:00,43.0,5.87,50.0,6.94,12.25,47.59359,-54.27349
2022-04-29 10:44:01+00:00,40.0,7.19,41.0,7.99,12.25,47.59359,-54.27349
2022-04-29 10:54:01+00:00,43.0,7.19,45.0,8.21,12.25,47.59359,-54.27349
2022-04-29 11:04:01+00:00,48.0,7.24,49.0,8.29,12.25,47.59359,-54.27349
2022-04-29 11:14:01+00:00,48.0,7.32,48.0,8.21,12.73,47.59359,-54.27349
2022-04-29 11:24:01+00:00,42.0,6.51,43.0,7.74,12.73,47.59359,-54.27349
2022-04-29 11:34:01+00:00,43.0,5.94,43.0,6.59,12.73,47.59359,-54.27349
2022-04-29 11:44:01+00:00,44.0,5.55,47.0,6.12,12.73,47.59359,-54.27349
2022-04-29 11:54:01+00:00,47.0,4.82,48.0,5.36,12.73,47.59359,-54.27349
2022-04-29 12:04:01+00:00,42.0,5.28,40.0,6.13,12.73,47.59359,-54.27349
2022-04-29 12:14:01+00:00,44.0,5.61,43.0,6.43,13.13,47.59359,-54.27349
2022-04-29 12:24:01+00:00,33.0,5.51,38.0,6.09,13.13,47.59359,-54.27349
2022-04-29 12:34:01+00:00,30.0,4.33,33.0,4.93,13.13,47.59359,-54.27349
2022-04-29 12:44:01+00:00,28.0,4.63,34.0,5.08,13.13,47.59359,-54.27349
2022-04-29 12:54:01+00:00,27.0,4.34,36.0,5.11,13.13,47.59359,-54.27349
2022-04-29 13:04:01+00:00,24.0,4.14,21.0,4.59,13.13,47.59359,-54.27349
2022-04-29 13:14:01+00:00,31.0,5.32,35.0,5.96,13.21,47.59359,-54.27349
2022-04-29 13:24:01+00:00,32.0,4.75,36.0,5.24,13.21,47.59359,-54.27349
2022-04-29 13:34:01+00:00,38.0,5.06,39.0,5.59,13.21,47.59359,-54.27349
2022-04-29 13:44:01+00:00,39.0,6.12,43.0,6.65,13.21,47.59359,-54.27349
2022-04-29 13:54:01+00:00,44.0,5.78,41.0,6.44,13.21,47.59359,-54.27349
2022-04-29 14:04:01+00:00,41.0,5.74,45.0,6.51,13.21,47.59359,-54.27349
2022-04-29 14:14:00+00:00,39.0,6.41,41.0,7.01,13.6,47.59359,-54.27349
2022-04-29 14:24:00+00:00,41.0,7.14,43.0,8.02,13.6,47.59359,-54.27349
2022-04-29 14:34:00+00:00,40.0,6.72,37.0,7.42,13.6,47.59359,-54.27349
2022-04-29 14:44:00+00:00,40.0,5.87,50.0,6.57,13.6,47.59359,-54.27349
2022-04-29 14:54:00+00:00,42.0,6.87,40.0,7.67,13.6,47.59359,-54.27349
2022-04-29 15:04:00+00:00,38.0,6.74,40.0,7.85,13.6,47.59359,-54.27349
2022-04-29 15:14:01+00:00,40.0,6.29,38.0,6.84,13.68,47.59359,-54.27349
2022-04-29 15:24:01+00:00,40.0,6.72,41.0,7.7,13.68,47.59359,-54.27349
2022-04-29 15:34:01+00:00,39.0,5.93,44.0,6.62,13.68,47.59359,-54.27349
2022-04-29 15:44:01+00:00,36.0,6.64,36.0,7.51,13.68,47.59359,-54.27349
2022-04-29 15:54:01+00:00,32.0,5.04,41.0,5.59,13.68,47.59359,-54.27349
2022-04-29 16:04:01+00:00,32.0,4.59,34.0,5.19,13.68,47.59359,-54.27349
2022-04-29 16:14:01+00:00,44.0,4.61,54.0,5.8,13.68,47.59359,-54.27349
2022-04-29 16:24:01+00:00,36.0,4.63,47.0,5.55,13.68,47.59359,-54.27349
2022-04-29 16:34:01+00:00,36.0,5.08,37.0,5.61,13.68,47.59359,-54.27349
2022-04-29 16:44:01+00:00,38.0,5.61,40.0,5.95,13.68,47.59359,-54.27349
2022-04-29 16:54:01+00:00,48.0,5.67,48.0,6.37,13.68,47.59359,-54.27349
2022-04-29 17:04:01+00:00,53.0,4.18,52.0,5.15,13.68,47.59359,-54.27349
2022-04-29 17:14:01+00:00,59.0,3.27,58.0,4.04,13.68,47.59359,-54.27349
2022-04-29 17:24:01+00:00,53.0,3.5,52.0,4.21,13.68,47.59359,-54.27349
2022-04-29 17:34:01+00:00,56.0,4.39,57.0,4.89,13.68,47.59359,-54.27349
2022-04-29 17:44:01+00:00,33.0,3.74,33.0,4.06,13.68,47.59359,-54.27349
2022-04-29 17:54:01+00:00,45.0,4.22,45.0,4.76,13.68,47.59359,-54.27349
2022-04-29 18:04:01+00:00,55.0,4.05,63.0,6.08,13.68,47.59359,-54.27349
2022-04-29 18:14:01+00:00,45.0,3.69,45.0,4.3,13.76,47.59359,-54.27349
2022-04-29 18:24:01+00:00,43.0,4.98,44.0,5.32,13.76,47.59359,-54.27349
2022-04-29 18:34:01+00:00,54.0,3.97,59.0,4.91,13.76,47.59359,-54.27349
2022-04-29 18:44:01+00:00,47.0,5.01,49.0,5.41,13.76,47.59359,-54.27349
2022-04-29 18:54:01+00:00,47.0,4.21,46.0,4.69,13.76,47.59359,-54.27349
2022-04-29 19:04:01+00:00,52.0,4.98,48.0,5.86,13.76,47.59359,-54.27349
2022-04-29 19:14:00+00:00,59.0,3.92,72.0,5.16,13.76,47.59359,-54.27349
2022-04-29 19:24:00+00:00,45.0,5.17,45.0,5.58,13.76,47.59359,-54.27349
2022-04-29 19:34:00+00:00,38.0,5.98,31.0,6.73,13.76,47.59359,-54.27349
2022-04-29 19:44:00+00:00,41.0,5.26,41.0,5.56,13.76,47.59359,-54.27349
2022-04-29 19:54:00+00:00,44.0,4.86,52.0,5.54,13.76,47.59359,-54.27349
2022-04-29 20:04:00+00:00,46.0,4.88,61.0,6.51,13.76,47.59359,-54.27349
2022-04-29 20:14:00+00:00,65.0,6.48,67.0,7.02,13.68,47.59359,-54.27349
2022-04-29 20:24:00+00:00,68.0,6.26,70.0,6.61,13.68,47.59359,-54.27349
2022-04-29 20:34:00+00:00,53.0,4.93,64.0,6.77,13.68,47.59359,-54.27349
2022-04-29 20:44:00+00:00,55.0,4.22,55.0,4.42,13.68,47.59359,-54.27349
2022-04-29 20:54:00+00:00,59.0,4.18,61.0,4.65,13.68,47.59359,-54.27349
2022-04-29 21:04:00+00:00,56.0,5.02,54.0,5.57,13.68,47.59359,-54.27349
2022-04-29 21:14:01+00:00,52.0,5.13,53.0,5.53,13.6,47.59359,-54.27349
2022-04-29 21:24:01+00:00,51.0,5.24,52.0,5.64,13.6,47.59359,-54.27349
2022-04-29 21:34:01+00:00,55.0,5.42,55.0,5.88,13.6,47.59359,-54.27349
2022-04-29 21:44:01+00:00,50.0,5.06,53.0,5.41,13.6,47.59359,-54.27349
2022-04-29 21:54:01+00:00,60.0,5.87,65.0,6.92,13.6,47.59359,-54.27349
2022-04-29 22:04:01+00:00,50.0,4.82,51.0,5.27,13.6,47.59359,-54.27349
2022-04-29 22:14:01+00:00,62.0,6.54,63.0,6.88,13.05,47.59359,-54.27349
2022-04-29 22:24:01+00:00,60.0,6.63,60.0,7.0,13.05,47.59359,-54.27349
2022-04-29 22:34:01+00:00,38.0,6.31,39.0,6.57,13.05,47.59359,-54.27349
2022-04-29 22:44:01+00:00,48.0,7.2,55.0,8.04,13.05,47.59359,-54.27349
2022-04-29 22:54:01+00:00,44.0,6.03,43.0,6.69,13.05,47.59359,-54.27349
2022-04-29 23:04:01+00:00,40.0,6.3,40.0,6.97,13.05,47.59359,-54.27349
2022-04-29 23:14:01+00:00,36.0,6.65,38.0,7.37,12.49,47.59359,-54.27349
2022-04-29 23:24:01+00:00,45.0,6.08,51.0,6.89,12.49,47.59359,-54.27349
2022-04-29 23:34:01+00:00,49.0,5.62,48.0,6.15,12.49,47.59359,-54.27349
2022-04-29 23:44:01+00:00,46.0,5.51,48.0,6.03,12.49,47.59359,-54.27349
2022-04-29 23:54:01+00:00,49.0,5.51,52.0,6.12,12.49,47.59359,-54.27349
